Cloquet, MN

3:15 AM CST on December 07, 2019 (GMT -0600)
Cloquet Carlton County

Weather History for KCOQ - October, 2019

Change the Weather History Date:

Saturday, October 19, 2019

  Actual Average Record
Temperature  
Mean Temperature 55 °F -  
Max Temperature 64 °F 49 °F 78 °F (2000)
Min Temperature 44 °F 33 °F 1 °F (1999)
Degree Days  
Heating Degree Days 10    
Growing Degree Days 5 (Base 50)    
Moisture  
Dew Point 35 °F    
Average Humidity 50    
Maximum Humidity 76    
Minimum Humidity 19    
Precipitation  
Precipitation 0.00 in - - ()
Sea Level Pressure  
Sea Level Pressure 29.60 in    
Wind  
Wind Speed 7 mph ()    
Max Wind Speed 16 mph    
Max Gust Speed 22 mph    
Visibility 10.0 miles    
Events      
Averages and records for this station are not official NWS values.
T = Trace of Precipitation, MM = Missing Value Source: Averaged Metar Reports

Daily Weather History Graph

Daily Weather History Graph

Search for Another Location

Airport or City:

Astronomy

Oct. 19, 2019 Rise Set
Actual Time 7:33 AM CDT 6:16 PM CDT
Civil Twilight 7:02 AM CDT 6:46 PM CDT
Nautical Twilight 6:27 AM CDT 7:22 PM CDT
Astronomical Twilight 5:52 AM CDT 7:56 PM CDT
Moon 10:09 PM CDT (10/19) 1:21 PM CDT (10/19)
Length of Visible Light 11h 44m
Length of Day
10h 43m
Waning Gibbous, 69% of the Moon is Illuminated
Oct 19
Waning Gibbous
Oct 21
Last Quarter
Oct 27
New
Nov 4
First Quarter
Nov 12
Full

Hourly Weather History & Observations

Time (CDT) Temp. Windchill Dew Point Humidity Pressure Visibility Wind Dir Wind Speed Gust Speed Precip Events Conditions
12:15 AM 57.2 °F - 39.2 °F 51% 29.56 in 10.0 mi South 8.1 mph - N/A   Overcast
12:35 AM 57.2 °F - 39.2 °F 51% 29.56 in 10.0 mi South 10.4 mph 19.6 mph N/A   Scattered Clouds
12:55 AM 57.2 °F - 41.0 °F 55% 29.55 in 10.0 mi South 8.1 mph 21.9 mph N/A   Mostly Cloudy
12:56 AM 57.2 °F - 41.0 °F 55% 29.55 in 10.0 mi South 8.1 mph 21.9 mph N/A   Mostly Cloudy
1:15 AM 57.2 °F - 41.0 °F 55% 29.55 in 10.0 mi South 10.4 mph 16.1 mph N/A   Overcast
1:35 AM 57.2 °F - 41.0 °F 55% 29.55 in 10.0 mi South 10.4 mph 20.7 mph N/A   Mostly Cloudy
1:36 AM 57.2 °F - 41.0 °F 55% 29.55 in 10.0 mi South 11.5 mph 20.7 mph N/A   Mostly Cloudy
1:55 AM 57.2 °F - 41.0 °F 55% 29.55 in 10.0 mi South 12.7 mph 18.4 mph N/A   Mostly Cloudy
2:15 AM 55.4 °F - 41.0 °F 58% 29.55 in 10.0 mi South 9.2 mph 17.3 mph N/A   Mostly Cloudy
2:16 AM 55.4 °F - 41.0 °F 58% 29.55 in 10.0 mi South 10.4 mph 17.3 mph N/A   Mostly Cloudy
2:35 AM 55.4 °F - 41.0 °F 58% 29.55 in 10.0 mi South 9.2 mph 17.3 mph N/A   Scattered Clouds
2:55 AM 55.4 °F - 41.0 °F 58% 29.55 in 10.0 mi South 6.9 mph - N/A   Clear
2:56 AM 55.4 °F - 41.0 °F 58% 29.55 in 10.0 mi South 8.1 mph - N/A   Clear
3:15 AM 55.4 °F - 41.0 °F 58% 29.55 in 10.0 mi South 9.2 mph - N/A   Clear
3:16 AM 55.4 °F - 41.0 °F 58% 29.55 in 10.0 mi South 8.1 mph - N/A   Clear
3:35 AM 55.4 °F - 41.0 °F 58% 29.55 in 10.0 mi South 8.1 mph - N/A   Clear
3:36 AM 55.4 °F - 41.0 °F 58% 29.55 in 10.0 mi South 8.1 mph - N/A   Clear
3:55 AM 53.6 °F - 42.8 °F 67% 29.55 in 10.0 mi South 10.4 mph - N/A   Clear
3:56 AM 53.6 °F - 42.8 °F 67% 29.56 in 10.0 mi South 10.4 mph - N/A   Clear
4:15 AM 53.6 °F - 42.8 °F 67% 29.55 in 10.0 mi South 10.4 mph - N/A   Clear
4:35 AM 53.6 °F - 42.8 °F 67% 29.55 in 10.0 mi South 6.9 mph - N/A   Clear
4:36 AM 53.6 °F - 42.8 °F 67% 29.55 in 10.0 mi South 8.1 mph - N/A   Clear
4:55 AM 53.6 °F - 42.8 °F 67% 29.56 in 10.0 mi South 8.1 mph - N/A   Clear
5:15 AM 51.8 °F - 42.8 °F 71% 29.56 in 10.0 mi SSW 8.1 mph - N/A   Clear
5:35 AM 51.8 °F - 42.8 °F 71% 29.56 in 10.0 mi SSW 4.6 mph - N/A   Clear
5:36 AM 51.8 °F - 42.8 °F 71% 29.57 in 10.0 mi SSW 5.8 mph - N/A   Clear
5:55 AM 51.8 °F - 42.8 °F 71% 29.56 in 10.0 mi SSW 6.9 mph - N/A   Clear
6:15 AM 51.8 °F - 42.8 °F 71% 29.57 in 10.0 mi SSW 5.8 mph - N/A   Clear
6:35 AM 51.8 °F - 42.8 °F 71% 29.57 in 10.0 mi SSW 3.5 mph - N/A   Scattered Clouds
6:36 AM 51.8 °F - 42.8 °F 71% 29.57 in 10.0 mi SSW 4.6 mph - N/A   Scattered Clouds
6:55 AM 50.0 °F - 42.8 °F 76% 29.58 in 10.0 mi South 5.8 mph - N/A   Scattered Clouds
7:15 AM 50.0 °F - 42.8 °F 76% 29.59 in 10.0 mi SW 6.9 mph - N/A   Scattered Clouds
7:16 AM 50.0 °F - 42.8 °F 76% 29.59 in 10.0 mi SW 6.9 mph - N/A   Scattered Clouds
7:35 AM 50.0 °F - 42.8 °F 76% 29.59 in 10.0 mi SW 5.8 mph - N/A   Scattered Clouds
7:55 AM 50.0 °F - 42.8 °F 76% 29.59 in 10.0 mi WSW 6.9 mph - N/A   Mostly Cloudy
7:56 AM 50.0 °F - 42.8 °F 76% 29.59 in 10.0 mi WSW 6.9 mph - N/A   Mostly Cloudy
8:15 AM 50.0 °F - 42.8 °F 76% 29.57 in 10.0 mi West 4.6 mph - N/A   Light Drizzle
8:16 AM 50.0 °F - 42.8 °F 76% 29.57 in 10.0 mi West 5.8 mph - N/A   Light Drizzle
8:35 AM 50.0 °F - 42.8 °F 76% 29.58 in 10.0 mi WSW 8.1 mph - N/A   Scattered Clouds
8:55 AM 51.8 °F - 42.8 °F 71% 29.59 in 10.0 mi WSW 5.8 mph - N/A   Mostly Cloudy
8:56 AM 51.8 °F - 42.8 °F 71% 29.59 in 10.0 mi WSW 6.9 mph - N/A   Mostly Cloudy
9:15 AM 51.8 °F - 42.8 °F 71% 29.59 in 10.0 mi West 6.9 mph - N/A   Scattered Clouds
9:35 AM 51.8 °F - 42.8 °F 71% 29.60 in 10.0 mi West 5.8 mph - N/A   Scattered Clouds
9:55 AM 51.8 °F - 42.8 °F 71% 29.61 in 10.0 mi West 5.8 mph - N/A   Scattered Clouds
10:15 AM 51.8 °F - 41.0 °F 67% 29.62 in 10.0 mi WSW 5.8 mph - N/A   Clear
10:35 AM 51.8 °F - 41.0 °F 67% 29.62 in 10.0 mi WSW 3.5 mph - N/A   Clear
10:55 AM 51.8 °F - 41.0 °F 67% 29.62 in 10.0 mi WSW 4.6 mph - N/A   Clear
11:15 AM 53.6 °F - 41.0 °F 62% 29.61 in 10.0 mi WSW 4.6 mph - N/A   Clear
11:35 AM 53.6 °F - 41.0 °F 62% 29.61 in 10.0 mi WSW 4.6 mph - N/A   Clear
11:55 AM 53.6 °F - 41.0 °F 62% 29.62 in 10.0 mi SW 4.6 mph - N/A   Clear
12:15 PM 55.4 °F - 41.0 °F 58% 29.62 in 10.0 mi SW 4.6 mph - N/A   Clear
12:16 PM 55.4 °F - 41.0 °F 58% 29.62 in 10.0 mi SSW 4.6 mph - N/A   Clear
12:35 PM 57.2 °F - 41.0 °F 55% 29.62 in 10.0 mi SW 6.9 mph - N/A   Clear
12:36 PM 57.2 °F - 41.0 °F 55% 29.62 in 10.0 mi SW 5.8 mph - N/A   Clear
12:55 PM 59.0 °F - 39.2 °F 48% 29.61 in 10.0 mi SSW 5.8 mph - N/A   Clear
1:15 PM 60.8 °F - 39.2 °F 45% 29.61 in 10.0 mi South 5.8 mph - N/A   Clear
1:16 PM 60.8 °F - 39.2 °F 45% 29.61 in 10.0 mi South 8.1 mph - N/A   Clear
1:35 PM 60.8 °F - 39.2 °F 45% 29.60 in 10.0 mi South 5.8 mph - N/A   Clear
1:55 PM 62.6 °F - 37.4 °F 39% 29.59 in 10.0 mi SSW 4.6 mph - N/A   Clear
1:56 PM 62.6 °F - 37.4 °F 39% 29.59 in 10.0 mi SSW 6.9 mph - N/A   Clear
2:15 PM 62.6 °F - 37.4 °F 39% 29.59 in 10.0 mi SSW 8.1 mph - N/A   Clear
2:35 PM 64.4 °F - 30.2 °F 28% 29.58 in 10.0 mi SSW 11.5 mph 17.3 mph N/A   Scattered Clouds
2:55 PM 64.4 °F - 28.4 °F 26% 29.58 in 10.0 mi WSW 13.8 mph - N/A   Scattered Clouds
2:56 PM 64.4 °F - 28.4 °F 26% 29.58 in 10.0 mi WSW 12.7 mph - N/A   Scattered Clouds
3:15 PM 64.4 °F - 28.4 °F 26% 29.58 in 10.0 mi West 16.1 mph - N/A   Clear
3:35 PM 64.4 °F - 26.6 °F 24% 29.58 in 10.0 mi WSW 11.5 mph - N/A   Clear
3:36 PM 64.4 °F - 26.6 °F 24% 29.58 in 10.0 mi WSW 10.4 mph - N/A   Clear
3:55 PM 64.4 °F - 23.0 °F 21% 29.58 in 10.0 mi WSW 9.2 mph 17.3 mph N/A   Clear
4:15 PM 64.4 °F - 21.2 °F 19% 29.59 in 10.0 mi WSW 9.2 mph 16.1 mph N/A   Clear
4:16 PM 64.4 °F - 21.2 °F 19% 29.59 in 10.0 mi WSW 10.4 mph 16.1 mph N/A   Clear
4:35 PM 62.6 °F - 21.2 °F 20% 29.59 in 10.0 mi WSW 12.7 mph 19.6 mph N/A   Clear
4:55 PM 62.6 °F - 21.2 °F 20% 29.59 in 10.0 mi WSW 10.4 mph - N/A   Clear
4:56 PM 62.6 °F - 21.2 °F 20% 29.59 in 10.0 mi WSW 9.2 mph - N/A   Clear
5:15 PM 62.6 °F - 21.2 °F 20% 29.60 in 10.0 mi WSW 8.1 mph 16.1 mph N/A   Clear
5:16 PM 62.6 °F - 21.2 °F 20% 29.60 in 10.0 mi West 8.1 mph 16.1 mph N/A   Clear
5:35 PM 60.8 °F - 21.2 °F 22% 29.60 in 10.0 mi WSW 9.2 mph 16.1 mph N/A   Clear
5:55 PM 60.8 °F - 21.2 °F 22% 29.61 in 10.0 mi West 5.8 mph - N/A   Clear
5:56 PM 60.8 °F - 21.2 °F 22% 29.61 in 10.0 mi West 6.9 mph - N/A   Clear
6:15 PM 57.2 °F - 23.0 °F 27% 29.61 in 10.0 mi WSW 4.6 mph - N/A   Clear
6:35 PM 57.2 °F - 24.8 °F 29% 29.62 in 10.0 mi WSW 4.6 mph - N/A   Scattered Clouds
6:36 PM 57.2 °F - 24.8 °F 29% 29.62 in 10.0 mi WSW 5.8 mph - N/A   Scattered Clouds
6:55 PM 57.2 °F - 23.0 °F 27% 29.63 in 10.0 mi WSW 6.9 mph - N/A   Clear
7:15 PM 55.4 °F - 24.8 °F 31% 29.64 in 10.0 mi WSW 5.8 mph - N/A   Clear
7:35 PM 55.4 °F - 24.8 °F 31% 29.64 in 10.0 mi West 6.9 mph - N/A   Clear
7:55 PM 53.6 °F - 24.8 °F 33% 29.65 in 10.0 mi WSW 5.8 mph - N/A   Clear
7:56 PM 53.6 °F - 24.8 °F 33% 29.65 in 10.0 mi WSW 4.6 mph - N/A   Clear
8:15 PM 53.6 °F - 24.8 °F 33% 29.65 in 10.0 mi WSW 6.9 mph - N/A   Clear
8:16 PM 53.6 °F - 24.8 °F 33% 29.66 in 10.0 mi WSW 6.9 mph - N/A   Clear
8:35 PM 51.8 °F - 24.8 °F 35% 29.66 in 10.0 mi WSW 6.9 mph - N/A   Clear
8:55 PM 51.8 °F - 24.8 °F 35% 29.66 in 10.0 mi West 5.8 mph - N/A   Clear
9:15 PM 50.0 °F - 24.8 °F 37% 29.67 in 10.0 mi WSW 6.9 mph - N/A   Clear
9:16 PM 50.0 °F - 24.8 °F 37% 29.67 in 10.0 mi West 6.9 mph - N/A   Clear
9:35 PM 50.0 °F - 24.8 °F 37% 29.67 in 10.0 mi West 6.9 mph - N/A   Clear
9:55 PM 48.2 °F - 26.6 °F 43% 29.68 in 10.0 mi WSW 5.8 mph - N/A   Clear
9:56 PM 48.2 °F - 26.6 °F 43% 29.68 in 10.0 mi West 6.9 mph - N/A   Clear
10:16 PM 48.2 °F - 26.6 °F 43% 29.68 in 10.0 mi WSW 5.8 mph - N/A   Clear
10:35 PM 48.2 °F - 28.4 °F 46% 29.68 in 10.0 mi WSW 5.8 mph - N/A   Clear
10:55 PM 46.4 °F 45.2 °F 28.4 °F 50% 29.68 in 10.0 mi WSW 3.5 mph - N/A   Clear
11:15 PM 46.4 °F 45.2 °F 28.4 °F 50% 29.69 in 10.0 mi WSW 3.5 mph - N/A   Clear
11:35 PM 44.6 °F 43.1 °F 28.4 °F 53% 29.69 in 10.0 mi WSW 3.5 mph - N/A   Clear